Location: Unspecified
(43.3830°N, 0.0000°E)
Time: 13:03:45
(UTC+00:00)

Vanguard 2 - Pass Details

Date: 22 June 2019
Orbit: 553 x 2938 km, 32.9° (Epoch: 18 July)

Event Time Altitude Azimuth Distance (km) Brightness Sun altitude
Rises 14:13:55 0° 267° (W) 4,807 12.1 56.4°
Reaches altitude 10° 14:17:43 10° 252° (WSW) 4,190 12.0 55.7°
Maximum altitude 14:26:01 22° 208° (SSW) 3,957 12.0 54.4°
Drops below altitude 10° 14:36:42 10° 166° (SSE) 5,499 12.0 52.5°
Sets 14:42:53 0° 153° (SSE) 6,711 12.3 51.5°
